Regional Weather Roundup
Issued by NWS

Home | Current Version | Previous Version | Graphics & Text | Print | Product List | Glossary On
Versions: 1 2 3 4 5 6 7 8 9 10 11 12 13 14 15 16 17 18 19 20 21 22 23 24 25 26 27 28 29 30 31 32 33 34 35 36 37 38 39 40 41 42 43 44 45 46 47 48 49 50
000
ASUS43 KLOT 272108
RWRIL

ILLINOIS REGIONAL WEATHER ROUNDUP
NATIONAL WEATHER SERVICE CHICAGO/ROMEOVILLE IL
300 PM CST MON FEB 27 2017

NOTE: "FAIR" INDICATES FEW OR NO CLOUDS BELOW 12,000 FEET WITH NO
SIGNIFICANT WEATHER AND/OR OBSTRUCTIONS TO VISIBILITY.

* THESE STATIONS ARE NOT UNDER NWS QUALITY CONTROL. THEY ALSO MAY NOT
  REPORT WEATHER SUCH AS PRECIPITATION OR FOG.

ILZ001-002-007-009-015-016-024-272200-
NORTHWEST ILLINOIS

CITY           SKY/WX    TMP DP  RH WIND       PRES   REMARKS
MOLINE         MOSUNNY   55  31  39 VRB7G20   30.01F
STERLING*      PTSUNNY   52  34  50 VRB5      30.05F
$$

ILZ003-004-008-010-011-017-018-272200-
NORTH CENTRAL ILLINOIS

CITY           SKY/WX    TMP DP  RH WIND       PRES   REMARKS
ROCKFORD       PTSUNNY   51  32  48 SW5       30.08S
FREEPORT*      SUNNY     51  32  48 SW13      30.06F
ROCHELLE*      PTSUNNY   51  35  53 SW13      30.06F
DE KALB*       CLOUDY    51  35  52 S9        30.07F
PERU*          PTSUNNY   53  31  42 SW12      30.06F
$$

ILZ005-006-012>014-019>023-272200-
NORTHEAST ILLINOIS

CITY           SKY/WX    TMP DP  RH WIND       PRES   REMARKS
CHICAGO-OHARE  PTSUNNY   53  33  46 S10       30.08F
CHICAGO-MIDWAY PTSUNNY   54  31  41 SW12G18   30.08F
AURORA         PTSUNNY   55  33  43 S12       30.07F
LANSING*       MOSUNNY   54  37  52 S12       30.09F
JOLIET*        PTSUNNY   56  33  42 SW12      30.08F
WAUKEGAN       MOSUNNY   46  34  62 SE13      30.08S
DUPAGE AIRPORT PTSUNNY   53  32  44 S13       30.07F
KANKAKEE*      PTSUNNY   55  33  43 CALM      30.09F
WHEELING       MOSUNNY   52  31  44 SW7       30.10S
MORRIS*        PTSUNNY   54  32  43 SW7       30.06F
ROMEOVILLE*    CLOUDY    53  36  52 SW12      30.08F
NORTHERLY ISL    N/A     41  35  79 E5          N/A
$$

LMZ740>746-272200-
SOUTHERN LAKE MICHIGAN

STATION/POSITION SKY/WX   TEMP    WIND        PRES    VSBY  WAVE
                          AIR SEA DIR/SP/G                  HT/PER
                          (F)     (DEG/KT/KT) (MB)    (MI)  (FT/S)
HARRISON CRIB              41     110/ 16/ 17   N/A
BURNHAM HARBOR             40      CALM  / 10   N/A
CALUMET HARBOR             51     190/  7/ 10 1018.4F
BURNS HARBOR               45     260/  3/  6 1020.3F
MICHIGAN CITY              38      30/  9/  9   N/A
$$

ILZ025>027-034>036-040-047-049-050-058-095>099-272200-
WEST-CENTRAL ILLINOIS

CITY           SKY/WX    TMP DP  RH WIND       PRES   REMARKS
QUINCY         SUNNY     59  29  31 SE10      29.99F
GALESBURG*     SUNNY     56  32  39 S10G16    30.01F
MACOMB*        SUNNY     58  31  35 S10G18    30.03F
JACKSONVILLE*  SUNNY     58  33  38 S6        30.02F
PITTSFIELD*    SUNNY     60  32  34 S7        30.01F
$$

ILZ028>032-037-038-041>044-048-051>054-059>061-272200-
CENTRAL ILLINOIS

CITY           SKY/WX    TMP DP  RH WIND       PRES   REMARKS
PONTIAC        PTSUNNY   58  36  43 S10       30.07F
BLOOMINGTON    PTSUNNY   57  36  45 S12       30.06F
DECATUR        MOSUNNY   58  36  43 SW9G17    30.06F
PEORIA         PTSUNNY   58  34  40 S13       30.03F
LACON*         MOSUNNY   56  33  42 SW10      30.04F
LINCOLN*       SUNNY     59  37  43 S7        30.05S
SPRINGFIELD    SUNNY     62  34  35 S12G17    30.04F
TAYLORVILLE    MOSUNNY   59  37  44 S7G16     30.05F
$$

ILZ033-039-045-046-055>057-062-063-272200-
EAST-CENTRAL ILLINOIS

CITY           SKY/WX    TMP DP  RH WIND       PRES   REMARKS
CHAMPAIGN      PTSUNNY   58  36  43 S8        30.08F
RANTOUL*       MOSUNNY   57  37  47 S8G16     30.08F
MATTOON        PTSUNNY   55  41  59 S10       30.08F
PARIS*         PTSUNNY   55  40  57 SE10      30.11F
$$

ILZ079-100>102-272200-
SOUTHWEST ILLINOIS

CITY           SKY/WX    TMP DP  RH WIND       PRES   REMARKS
ALTON          SUNNY     61  39  44 S12       30.03F
BELLEVILLE     SUNNY     64  40  41 E9G16     30.03F
CAHOKIA*       SUNNY     65  38  36 S10       30.02F
SPARTA*        SUNNY     62  44  50 S10G17    30.06S
$$

ILZ064>066-069>071-074>076-080>082-084>086-088>090-092>094-272200-
SOUTH-CENTRAL ILLINOIS

CITY           SKY/WX    TMP DP  RH WIND       PRES   REMARKS
CARBONDALE     MOSUNNY   61  47  59 S13       30.07F
CAIRO*         MOSUNNY   64  48  57 S8        30.08F
EFFINGHAM*     CLOUDY    58  43  57 SE8       30.09F
MARION         MOSUNNY   63  46  55 S9        30.09F
MT. VERNON     PTSUNNY   62  45  53 S13       30.08F
CENTRALIA*     MOSUNNY   63  45  52 S9        30.05F
SALEM*         PTSUNNY   60  41  48 S6        30.07F
METROPOLIS*    MOSUNNY   64  47  54 S9        30.09S
$$

ILZ067-068-072-073-078-083-087-091-272200-
SOUTHEAST ILLINOIS

CITY           SKY/WX    TMP DP  RH WIND       PRES   REMARKS
LAWRENCEVILLE  CLOUDY    55  44  66 S10       30.13S
FLORA*         PTSUNNY   58  44  60 S9        30.10S
FAIRFIELD*     CLOUDY    59  46  63 S5        30.09S
HARRISBURG*    CLOUDY    61  48  62 S8        30.10S
ROBINSON*      CLOUDY    55  42  63 S8        30.13S
CARMI*         CLOUDY    59  47  64 S6        30.11R
$$

ABBREVIATIONS USED IN REMARKS
   TC - TEMPERATURE IN CELSIUS
  WCI - WIND CHILL INDEX
   HX - HEAT INDEX
  VSB - VISIBILITY
$$




USA.gov is the U.S. government's official web portal to all federal, state and local government web resources and services.